STARLINK-36766, 68069

Orbit data source: Space-Track

STARLINK-36766, 68069 is a payload satellite owned by SpaceX/Seattle (US) in LEO that was launched on Wed, 04 Mar 2026 UTC via an FALCON 9 launch vehicle from the Air Force Eastern Test Range (AFETR). Payload-class satellites include a variety of spacecraft equipped with specific instruments for various scientific and technological missions. These include communications satellites like Starlink; space stations such as the ISS; scientific satellites like the Hubble; Earth observation satellites from companies like Planet Labs, Umbra, and HawkEye 360; GPS; miniature CubeSats for education and research; and military/defense satellites.

Loading next visibility...
Identifier
68069, 2026-042A
Orbit
LEO
Country
Flag of USUS
Related business
Manufacturer
SpaceX/Seattle
Mission
Operational Commercial Communications
Bus & Motor
STARLINK V2MO, Unknown motor
Mass
575 kg wet, ~530 kg dry
Launch date (UTC)
2026-03-04 (4 months ago)
Launch vehicle
FALCON 9
Launch site
Air Force Eastern Test Range (AFETR)
Object type
Payload
Rocket body
Debris
Shape & HBR
Box + 2 Pan, 17.7 m
Radar Cross Section
36.964 m², Large (>1 m²)

Expand to show TLE details & history
Last TLE update: 1 day ago

TLE from 1 day ago
0 STARLINK-36766
1 68069U 26042A   26170.92681631  .00022338  00000-0  66979-3 0  9993
2 68069  53.1575  62.7505 0001119  94.9704 265.1427 15.34422652 17972
Epoch: 2026-06-19T22:14Z
TLE epoch observation values (Epoch: 2026-06-19T22:14:36.929Z)
Latitude
0.00005°
Longitude
-179.05211°
Altitude
463.602 km
Speed
7.636 km/s
True Right ascension
04h 11m 00s
True Declination
0° 00' 00"
Sunlit
Object was in daylight at epoch
Visualization orbit readout
Latitude
Unknown
Longitude
Unknown
Altitude
Unknown
Speed
Unknown
Apparent Right ascension
Unknown
Apparent Declination
Unknown
Sunlit
N/A
Visualization observer readout
Local Sidereal Time
10:17:56
Azimuth
Unknown
Elevation
Unknown
Doppler factor
Unknown
Orbital elements
Apogee altitude
463.659 km
Perigee altitude
462.128 km
Semi-major axis
6,841.03 km
Eccentricity
0.00011
Inclination
53.1575°
RAAN
62.7505°
Arg. of periapsis
94.9704°
True anomaly
265.12992°
Mean anomaly
265.1427°
Eccentric anomaly
265.13631°
Mean motion
3.83584 °/min
Orbital period
93.85 mins
BSTAR
0.00066979
Loading maneuver chart data...
Computing Atmospheric mass density...
Loading historical data...
Loading historical data...
Loading historical data...
Loading historical data...
Loading historical data...
Loading historical data...
Loading historical data...

Documentation

Showing up to 5 results
|